Location: San Antonio
(29.4240°N, 98.4930°W)
Time: 06:45:04
(UTC-05:00)

Vanguard 2 Rocket - All Passes

Search period start: 19 July 2024 00:00
Search period end: 29 July 2024 00:00
Orbit: 555 x 3302 km, 32.9° (Epoch: 19 July)

Date Brightness Start Highest point End Pass type
(mag) Time Alt. Az. Time Alt. Az. Time Alt. Az.
19 Jul - 00:03:06 10° WNW 00:11:51 85° NNE 00:27:46 10° ESE visible
19 Jul - 02:16:11 10° WNW 02:27:58 58° SSW 02:46:23 10° SE visible
19 Jul - 04:32:38 10° W 04:44:56 27° SW 04:59:50 10° SSE visible
19 Jul - 18:37:41 10° SSW 18:41:24 32° SSE 18:46:20 10° E daylight
19 Jul - 20:48:49 10° W 20:53:57 77° N 21:02:45 10° ENE visible
19 Jul - 23:00:58 10° WNW 23:08:14 76° N 23:21:37 10° E visible
20 Jul - 01:13:27 10° WNW 01:23:38 70° SSW 01:41:05 10° SE visible
20 Jul - 03:28:00 10° W 03:40:11 36° SSW 03:56:47 10° SSE visible
20 Jul - 05:54:08 10° SW 05:57:27 11° SW 06:00:52 10° SSW visible
20 Jul - 17:36:58 10° S 17:39:25 16° SE 17:42:07 10° ESE daylight
20 Jul - 19:46:56 10° WSW 19:51:22 85° SSE 19:58:17 10° ENE daylight
20 Jul - 21:58:56 10° W 22:04:57 69° N 22:15:48 10° E visible
21 Jul - 00:11:06 10° WNW 00:19:41 83° SSW 00:35:18 10° ESE visible
21 Jul - 02:24:26 10° W 02:35:37 45° SSW 02:52:41 10° SE visible
21 Jul - 04:43:03 10° WSW 04:52:35 18° SW 05:03:38 10° S visible
21 Jul - 18:45:10 10° SW 18:49:06 53° SSE 18:54:25 10° ENE daylight
21 Jul - 20:56:56 10° W 21:02:00 67° N 21:10:35 10° E visible
21 Jul - 23:08:59 10° WNW 23:16:09 84° NNE 23:29:23 10° ESE visible
22 Jul - 01:21:33 10° W 01:31:20 56° SSW 01:47:50 10° SE visible
22 Jul - 03:37:12 10° W 03:47:51 25° SW 04:01:43 10° SSE visible
22 Jul - 17:43:37 10° SSW 17:47:01 28° SSE 17:50:53 10° E daylight
22 Jul - 19:54:58 10° W 19:59:19 74° N 20:06:05 10° ENE daylight
22 Jul - 22:06:59 10° WNW 22:12:56 72° N 22:23:40 10° E visible
23 Jul - 00:19:05 10° WNW 00:27:27 68° SSW 00:42:30 10° ESE visible
23 Jul - 02:33:01 10° W 02:43:19 33° SSW 02:58:21 10° SSE visible
23 Jul - 04:59:29 10° SW 05:00:28 10° SW 05:01:29 10° SSW visible
23 Jul - 16:42:38 10° S 16:44:54 14° SSE 16:47:08 10° ESE daylight
23 Jul - 18:52:56 10° WSW 18:56:55 83° SSE 19:02:18 10° ENE daylight
23 Jul - 21:05:02 10° WNW 21:10:01 64° N 21:18:27 10° E visible
23 Jul - 23:16:56 10° WNW 23:23:58 83° SSW 23:36:55 10° ESE visible
24 Jul - 01:29:48 10° W 01:39:04 42° SSW 01:54:05 10° SE visible
24 Jul - 03:47:43 10° WSW 03:55:39 16° SW 04:05:13 10° S visible
24 Jul - 17:50:56 10° SW 17:54:44 49° SSE 17:59:02 10° E daylight
24 Jul - 20:03:01 10° W 20:07:20 62° N 20:13:54 10° ENE daylight
24 Jul - 22:14:57 10° WNW 22:20:50 82° NNE 22:31:26 10° ESE visible
25 Jul - 00:27:09 10° W 00:35:12 53° SSW 00:49:15 10° SE visible
25 Jul - 02:42:16 10° WSW 02:51:06 23° SSW 03:03:07 10° SSE night (unlit)
25 Jul - 16:49:01 10° SSW 16:52:35 27° SSE 16:56:00 10° E daylight
25 Jul - 19:00:53 10° W 19:04:50 71° N 19:10:05 10° ENE daylight
25 Jul - 21:13:01 10° WNW 21:17:59 68° N 21:26:18 10° E visible
25 Jul - 23:24:54 10° WNW 23:31:44 66° SSW 23:44:07 10° ESE visible
26 Jul - 01:38:25 10° W 01:46:52 30° SSW 01:59:39 10° SSE visible
26 Jul - 15:47:25 10° S 15:50:16 16° SSE 15:52:47 10° ESE daylight
26 Jul - 17:58:35 10° WSW 18:02:31 81° SSE 18:06:55 10° ENE daylight
26 Jul - 20:11:02 10° WNW 20:15:18 59° N 20:21:44 10° E daylight
26 Jul - 22:22:52 10° WNW 22:28:38 82° SSW 22:38:58 10° ESE visible
27 Jul - 00:35:25 10° W 00:42:59 38° SSW 00:55:27 10° SE visible
27 Jul - 02:53:08 10° WSW 02:59:01 14° SSW 03:06:06 10° S night (unlit)
27 Jul - 16:56:10 10° SW 17:00:19 48° SSE 17:04:09 10° E daylight
27 Jul - 19:08:52 10° W 19:12:46 58° N 19:17:52 10° ENE daylight
27 Jul - 21:20:56 10° WNW 21:25:50 79° NNE 21:34:03 10° ESE visible
27 Jul - 23:32:57 10° W 23:39:30 48° SSW 23:50:53 10° SE visible
28 Jul - 01:47:47 10° WSW 01:54:45 20° SSW 02:04:12 10° S night (unlit)
28 Jul - 15:53:43 10° SW 15:58:02 29° SSE 16:01:31 10° E daylight
28 Jul - 18:06:25 10° W 18:10:22 70° NNW 18:14:40 10° ENE daylight
28 Jul - 20:18:57 10° WNW 20:23:12 63° N 20:29:34 10° E daylight
28 Jul - 22:30:47 10° W 22:36:23 62° SSW 22:46:12 10° ESE visible
